[[{"header":{"parameterUnit":"m.s-1","parameterCategory":1,"la1":30.2991,"la2":30.254,"lo1":-89.0895,"lo2":-89.0444,"dy":0.0017,"dx":0.0017,"nx":28,"ny":28,"refTime":"2025-08-24T03:00:00:Z","depth":0,"parameterNumber":2,"parameterNumberName":"U-component_of_WINDS"},"data":[0,0,0,0,0,0,0,0,0,0,0,0,0,0,0,0,0,0,0,0,0,0,0,0,0,0,0,0,0,0,0,0,0,0,0,0,0,0,0,0,0,0,0,0,0,0,0,0,0,0,0,0,0,0,0,0,0,0,1.3139,1.3139,0,1.3207,1.3208,1.3209,1.3201,1.3199,1.3198,1.3197,1.3272,1.3275,1.3278,0,0,0,0,0,0,0,0,0,0,0,0,0,1.3005,1.3007,1.3139,1.3139,1.314,1.3207,1.3208,1.3209,1.3201,1.3199,1.3198,1.3197,1.3271,1.3275,1.3279,0,0,0,0,0,0,0,0,0,0,0,0,0,1.3067,1.3008,1.3138,1.3144,1.3145,1.3207,1.3208,1.3209,1.3201,1.3199,1.3198,1.3196,1.327,1.3275,1.3279,1.3341,0,0,1.3293,1.3295,0,0,0,0,0,0,0,0,1.3064,1.3072,1.3142,1.3144,1.3145,1.3193,1.3188,1.3253,1.3201,1.318,1.3197,1.3195,1.3248,1.3254,1.3271,1.3344,1.3347,1.3293,1.3296,1.3298,1.3299,0,0,0,0,0,0,0,1.3059,1.3069,1.3166,1.3144,1.3145,1.3145,1.3152,1.3201,1.3223,1.3182,1.3181,1.3189,1.3248,1.3266,1.3272,1.3348,1.3293,1.3297,1.33,1.3302,1.3476,1.3477,0,0,0,0,0,0,1.3053,1.3066,1.3164,1.3168,1.3099,1.3148,1.3156,1.318,1.3222,1.3227,1.3191,1.3189,1.3259,1.3267,1.3275,1.335,1.3298,1.3302,1.3305,1.3474,1.3476,1.3478,0,0,0,0,0,0,1.305,1.3062,1.3161,1.3117,1.3129,1.3152,1.3179,1.3182,1.32,1.3229,1.3233,1.3205,1.3258,1.3269,1.3324,1.3352,1.3304,1.3308,1.3472,1.3475,1.3477,1.35,0,0,0,0,0,0,1.3046,1.3061,1.3084,1.3117,1.3132,1.3208,1.3181,1.3185,1.3207,1.3205,1.3243,1.3248,1.3258,1.3317,1.3328,1.3358,1.3312,1.3469,1.3473,1.3476,1.3497,1.3503,1.3509,0,0,0,0,0,1.3042,1.3089,1.3085,1.3097,1.316,1.3209,1.3218,1.3227,1.321,1.3233,1.3251,1.3247,1.3347,1.3323,1.3336,1.3367,1.3467,1.3472,1.3476,1.3494,1.3502,1.3509,0,0,0,0,0,0,1.306,1.3093,1.3089,1.3148,1.3176,1.3208,1.3238,1.3235,1.3269,1.3266,1.3277,1.3286,1.3342,1.336,1.3332,1.3428,1.3405,1.3412,1.3415,1.3422,1.3428,1.3423,1.3316,0,0,0,0,0,1.307,1.3106,1.3133,1.3183,1.3196,1.3215,1.3236,1.3241,1.3271,1.3283,1.3305,1.3335,1.3374,1.3399,1.3436,1.3499,1.3507,1.3527,1.3532,1.3537,1.3544,1.3578,1.3587,1.3492,1.3492,1.3492,0,0,1.3093,1.3115,1.3138,1.3187,1.3209,1.3246,1.3225,1.3266,1.3294,1.329,1.3343,1.336,1.3395,1.3454,1.3481,1.3471,1.3571,1.3543,1.3546,1.355,1.3584,1.3592,1.36,1.3495,1.3494,1.3494,0,0,1.3153,1.3174,1.3217,1.3239,1.3271,1.3283,1.3293,1.3326,1.3336,1.3389,1.3386,1.3421,1.3487,1.3512,1.3533,1.3601,1.3598,1.3613,1.3645,1.3679,1.3686,1.3693,1.3718,1.3726,1.3619,1.3619,1.3619,0,1.3178,1.3233,1.324,1.3281,1.3303,1.3298,1.3343,1.3364,1.3408,1.3424,1.3411,1.3492,1.3515,1.358,1.3597,1.3614,1.3627,1.361,1.3684,1.3691,1.3697,1.3721,1.3731,1.3621,1.3621,1.3621,1.362,0,1.3262,1.3301,1.3332,1.3372,1.3398,1.344,1.3454,1.348,1.3481,1.3495,1.3549,1.3576,1.3618,1.3634,1.3637,1.3699,1.3692,1.3681,1.3658,1.3708,1.3731,1.374,1.3623,1.3623,1.3622,1.3622,0,0,1.3337,1.3379,1.3391,1.3409,1.3444,1.3475,1.3517,1.3557,1.3578,1.3608,1.3645,1.37,1.369,1.3714,1.372,1.3749,1.3802,1.3735,1.3736,1.3747,1.3873,1.3881,1.3891,1.38,1.3802,1.3803,1.387,0,1.3402,1.3475,1.3482,1.3549,1.3585,1.358,1.3617,1.3644,1.3657,1.369,1.3706,1.3744,1.3728,1.3743,1.3771,1.379,1.3828,1.3785,1.3835,1.3837,1.3827,1.3903,1.3912,1.3974,1.3879,1.3881,1.3882,0,1.3487,1.3518,1.3587,1.3617,1.3632,1.3665,1.3702,1.3733,1.3763,1.3771,1.3797,1.3798,1.3843,1.3817,1.388,1.385,1.3871,1.3883,1.3886,1.3892,1.3863,1.3912,1.3994,1.4004,1.3896,1.3895,1.3894,0,1.3535,1.3594,1.3643,1.3659,1.3695,1.3718,1.3734,1.3762,1.3785,1.3817,1.3832,1.387,1.3891,1.392,1.3932,1.3913,1.3994,1.397,1.4003,1.4003,1.4021,1.402,1.4109,1.4034,1.4033,1.4033,1.4033,0,1.3607,1.365,1.3665,1.3696,1.3744,1.3751,1.3799,1.3815,1.3839,1.3873,1.3872,1.3904,1.3918,1.3952,1.3962,1.4012,1.4022,1.403,1.4032,1.4031,1.403,1.4045,1.4042,1.4036,1.4035,1.4035,1.4034,0,1.367,1.3681,1.3735,1.3763,1.3772,1.3806,1.3831,1.3861,1.3873,1.3916,1.3927,1.3947,1.3987,1.4002,1.4052,1.4058,1.4117,1.4115,1.4106,1.4107,1.4139,1.4136,1.4242,1.4257,1.4171,1.4172,1.4172,0,1.3715,1.3748,1.3779,1.3801,1.3818,1.3853,1.3876,1.3885,1.3909,1.3945,1.397,1.401,1.4043,1.4108,1.4128,1.4166,1.4165,1.42,1.4171,1.4168,1.4167,1.4165,1.4168,1.4206,1.4206,1.4207,1.4208,0,1.3794,1.3798,1.3831,1.3865,1.3892,1.392,1.3947,1.3965,1.3978,1.4006,1.4046,1.4071,1.4121,1.4161,1.4199,1.4217,1.4215,1.4216,1.4226,1.4225,1.4219,1.4223,1.4121,1.4214,1.4214,1.4213,1.4213,1.4212,1.385,1.3879,1.3905,1.3941,1.3962,1.3987,1.4016,1.4031,1.4065,1.4105,1.4108,1.4152,1.4181,1.4232,1.4252,1.4287,1.4278,1.4292,1.4296,1.4299,1.4302,1.4212,1.4294,1.4294,1.4294,1.4294,1.4294,0,1.393,1.3946,1.3979,1.4016,1.4045,1.4038,1.4067,1.4092,1.413,1.4156,1.4187,1.4234,1.4272,1.4294,1.4333,1.4357,1.4357,1.4367,1.4366,1.437,1.4308,1.4295,1.4366,1.4366,1.4366,1.4366,1.4366,1.4366,1.3975,1.4023,1.403,1.4088,1.4105,1.4146,1.4164,1.4187,1.4208,1.4259,1.4291,1.4304,1.4329,1.4369,1.4404,1.441,1.4424,1.4435,1.444,1.4382,1.4374,1.4367,1.4356,1.4438,1.4438,1.4499,1.45,1.45]},{"header":{"parameterUnit":"m.s-1","parameterCategory":1,"la1":30.2991,"la2":30.254,"lo1":-89.0895,"lo2":-89.0444,"dy":0.0017,"dx":0.0017,"nx":28,"ny":28,"refTime":"2025-08-24T03:00:00:Z","depth":0,"parameterNumber":3,"parameterNumberName":"V-component_of_WINDS"},"data":[0,0,0,0,0,0,0,0,0,0,0,0,0,0,0,0,0,0,0,0,0,0,0,0,0,0,0,0,0,0,0,0,0,0,0,0,0,0,0,0,0,0,0,0,0,0,0,0,0,0,0,0,0,0,0,0,0,0,2.4689,2.469,0,2.4739,2.4739,2.474,2.4732,2.4731,2.473,2.473,2.4779,2.4781,2.4783,0,0,0,0,0,0,0,0,0,0,0,0,0,2.4583,2.4585,2.4689,2.469,2.4691,2.4739,2.4739,2.474,2.4732,2.4731,2.473,2.4729,2.4779,2.4781,2.4784,0,0,0,0,0,0,0,0,0,0,0,0,0,2.4631,2.4586,2.4689,2.4692,2.4693,2.4739,2.4739,2.474,2.4732,2.4731,2.473,2.4729,2.4778,2.4781,2.4784,2.4829,0,0,2.4794,2.4795,0,0,0,0,0,0,0,0,2.4628,2.4634,2.4691,2.4692,2.4693,2.4728,2.472,2.477,2.4733,2.4718,2.4729,2.4728,2.4763,2.4767,2.4779,2.4831,2.4833,2.4794,2.4796,2.4797,2.4798,0,0,0,0,0,0,0,2.4625,2.4632,2.4709,2.4692,2.4693,2.469,2.4695,2.473,2.4747,2.4719,2.4718,2.4724,2.4763,2.4776,2.4781,2.4834,2.4794,2.4797,2.4799,2.48,2.4918,2.492,0,0,0,0,0,0,2.4621,2.463,2.4707,2.471,2.4657,2.4693,2.4699,2.4718,2.4746,2.475,2.4725,2.4724,2.4772,2.4777,2.4782,2.4833,2.4797,2.48,2.4802,2.4917,2.4919,2.492,0,0,0,0,0,0,2.4619,2.4628,2.4705,2.467,2.4679,2.4696,2.4718,2.472,2.4733,2.4751,2.4754,2.4736,2.4771,2.4778,2.4816,2.4834,2.4802,2.4804,2.4916,2.4918,2.4919,2.4936,0,0,0,0,0,0,2.4616,2.4627,2.4646,2.467,2.4681,2.474,2.4719,2.4722,2.4738,2.4737,2.4762,2.4765,2.477,2.4811,2.4819,2.4838,2.4807,2.4914,2.4917,2.4919,2.4934,2.4938,2.4942,0,0,0,0,0,2.4612,2.465,2.4647,2.4656,2.4705,2.4741,2.4747,2.4753,2.474,2.4758,2.4768,2.4764,2.4831,2.4815,2.4824,2.4844,2.4913,2.4916,2.4919,2.4932,2.4937,2.4942,0,0,0,0,0,0,2.4629,2.4653,2.4651,2.4698,2.4717,2.474,2.4763,2.4759,2.4783,2.478,2.4786,2.4792,2.4829,2.4841,2.4823,2.4886,2.487,2.4875,2.4877,2.4882,2.4886,2.4882,2.481,0,0,0,0,0,2.4638,2.4666,2.4685,2.4725,2.4735,2.4747,2.4763,2.4765,2.4785,2.4793,2.4808,2.4827,2.4851,2.4868,2.4892,2.4935,2.4938,2.4953,2.4957,2.496,2.4964,2.4983,2.4988,2.4929,2.4929,2.4929,0,0,2.4657,2.4674,2.4692,2.4729,2.4744,2.477,2.4754,2.4784,2.4803,2.4798,2.4834,2.4844,2.4865,2.4905,2.4923,2.4916,2.4981,2.4964,2.4966,2.4968,2.4986,2.4992,2.4996,2.4931,2.4931,2.4931,0,0,2.4705,2.4723,2.4755,2.4769,2.4792,2.4799,2.4806,2.4828,2.4834,2.487,2.4865,2.4887,2.4931,2.4945,2.4958,2.5004,2.4999,2.5012,2.5033,2.5051,2.5055,2.5059,2.5073,2.5078,2.5016,2.5016,2.5016,0,2.4727,2.4767,2.4772,2.4801,2.4815,2.481,2.4841,2.4855,2.4884,2.4893,2.4884,2.4935,2.495,2.499,2.5001,2.5013,2.5019,2.5009,2.5055,2.5059,2.5062,2.5075,2.508,2.5017,2.5017,2.5017,2.5017,0,2.4789,2.4817,2.484,2.4866,2.4884,2.4914,2.492,2.4937,2.4936,2.4943,2.4977,2.4993,2.5018,2.5028,2.5029,2.5067,2.5061,2.5053,2.5037,2.5069,2.5081,2.5086,2.5019,2.5018,2.5018,2.5018,0,0,2.4852,2.4877,2.4885,2.4894,2.4916,2.4937,2.4964,2.4988,2.5,2.5019,2.504,2.5075,2.5066,2.508,2.5082,2.5098,2.5129,2.5088,2.5089,2.5092,2.5167,2.5171,2.5176,2.5126,2.5127,2.5128,2.5164,0,2.4899,2.4948,2.495,2.4994,2.5016,2.501,2.5033,2.5047,2.5053,2.5072,2.5079,2.5102,2.5091,2.5099,2.5115,2.5122,2.5143,2.512,2.5143,2.5144,2.5136,2.5183,2.5189,2.5222,2.5169,2.517,2.517,0,2.4962,2.498,2.5025,2.5038,2.5048,2.5069,2.5088,2.5107,2.5122,2.5125,2.5138,2.5136,2.5161,2.5144,2.5177,2.516,2.517,2.5174,2.5176,2.5177,2.5158,2.5183,2.5233,2.5237,2.5178,2.5177,2.5177,0,2.4998,2.5034,2.5064,2.5073,2.5091,2.5104,2.5112,2.5126,2.5138,2.5154,2.5161,2.5181,2.5191,2.5205,2.5207,2.5195,2.5238,2.5223,2.5239,2.5239,2.5248,2.5247,2.5298,2.5258,2.5258,2.5257,2.5257,0,2.5049,2.5076,2.508,2.5098,2.5126,2.5128,2.5155,2.5162,2.5173,2.5191,2.5187,2.5203,2.5206,2.5223,2.5225,2.5249,2.5255,2.5256,2.5255,2.5255,2.5254,2.526,2.5257,2.5259,2.5259,2.5258,2.5258,0,2.5094,2.5098,2.513,2.5142,2.5146,2.5166,2.5176,2.5192,2.5196,2.5218,2.5223,2.523,2.5248,2.5252,2.5275,2.5276,2.5304,2.5302,2.5298,2.5297,2.5312,2.531,2.5367,2.5374,2.5331,2.5332,2.5332,0,2.5125,2.5145,2.5158,2.5169,2.5177,2.5196,2.5207,2.5208,2.522,2.5235,2.5248,2.5266,2.5281,2.531,2.5316,2.5332,2.533,2.5349,2.5333,2.533,2.5327,2.5324,2.5325,2.5352,2.5352,2.5352,2.5353,0,2.5179,2.5178,2.5195,2.5211,2.5224,2.5237,2.5249,2.5258,2.526,2.5273,2.5291,2.5302,2.5323,2.534,2.5355,2.5362,2.5356,2.5358,2.5362,2.5361,2.5356,2.5355,2.5304,2.5356,2.5356,2.5356,2.5356,2.5355,2.5216,2.5231,2.5241,2.5258,2.5267,2.5277,2.5291,2.5295,2.5311,2.5327,2.5327,2.5346,2.5356,2.5375,2.5383,2.5396,2.539,2.5397,2.5398,2.54,2.5399,2.5355,2.5399,2.5399,2.5399,2.5399,2.5399,0,2.5266,2.5271,2.5287,2.5302,2.5314,2.5308,2.5319,2.533,2.5347,2.5356,2.5369,2.5388,2.5403,2.5409,2.5423,2.5433,2.543,2.5436,2.5435,2.5435,2.5406,2.5399,2.5437,2.5437,2.5437,2.5437,2.5437,2.5437,2.5293,2.5317,2.5317,2.5344,2.5349,2.5367,2.5373,2.5382,2.5389,2.541,2.5422,2.5425,2.5432,2.5446,2.5458,2.546,2.5464,2.547,2.547,2.5442,2.5438,2.5434,2.5428,2.5472,2.5472,2.5498,2.5498,2.5499]}]]